Location: B?dimalle
(17.1788°N, 80.5377°E)
Time: 08:15:08
(UTC+00:00)

Courier 1B Rocket - Pass Details

Date: 17 December 2025
Orbit: 920 x 1201 km, 28.2° (Epoch: 24 January)

Event Time Altitude Azimuth Distance (km) Brightness Sun altitude
Rises 14:06:05 0° 253° (WSW) 4,030 9.5 -27.4°
Reaches altitude 10° 14:08:53 10° 256° (WSW) 3,092 8.6 -28.0°
Maximum altitude 14:16:37 69° 339° (NNW) 1,266 5.4 -29.8°
Enters shadow 14:17:36 63° 20° (NNE) 1,317 5.4 -30.0°
